NPV1200 LGSM-LIPX

Flight info

Callsign NPV1200
Flight time N/A
Altitude 36000
Route URNIL UL609 MES UG18 FSK UL608 DISOR DCT LONTA UL608 DOLEV DCT PODOB DCT SIRMI DCT LABIN/N0345F180 Z122 BASOG/N0351F190 M167 CHI/N0345F180 L614 OSTEG
Aircraft A320/M-SDE3FGHIRWY/LB1

Departure

Time 2026-05-08 13:28
Airport Samos Airport (LGSM)

Arrival

Time N/A
Airport Verona Villafranca Valerio Catullo Airport (LIPX)
Time Latitude Longitude Altitude Speed Heading
2026-05-08 13:11 37.69059 26.91329 29 ft 0 kts
2026-05-08 13:21 37.69037 26.91326 29 ft 4 kts 13°
2026-05-08 13:21 37.69012 26.91315 29 ft 4 kts 38°
2026-05-08 13:21 37.68999 26.91292 29 ft 3 kts 92°
2026-05-08 13:22 37.68999 26.91283 29 ft 0 kts 94°
2026-05-08 13:24 37.68999 26.91285 29 ft 1 kts 94°
2026-05-08 13:24 37.68998 26.91315 29 ft 4 kts 94°
2026-05-08 13:24 37.68997 26.91338 29 ft 5 kts 94°
2026-05-08 13:25 37.68973 26.91376 29 ft 8 kts 178°
2026-05-08 13:25 37.68915 26.91334 29 ft 12 kts 238°
2026-05-08 13:25 37.68917 26.91220 29 ft 15 kts 275°
2026-05-08 13:25 37.68927 26.91060 29 ft 22 kts 274°
2026-05-08 13:26 37.68940 26.90844 29 ft 29 kts 275°
2026-05-08 13:26 37.68955 26.90577 29 ft 32 kts 275°
2026-05-08 13:26 37.68971 26.90298 29 ft 20 kts 274°
2026-05-08 13:26 37.68973 26.90200 29 ft 6 kts 333°
2026-05-08 13:27 37.68976 26.90228 29 ft 6 kts 97°
2026-05-08 13:27 37.68975 26.90243 29 ft 0 kts 95°
2026-05-08 13:27 37.68974 26.90246 29 ft 5 kts 95°
2026-05-08 13:27 37.68947 26.90709 29 ft 103 kts 94°
2026-05-08 13:28 37.68866 26.91926 307 ft 155 kts 95°
2026-05-08 13:28 37.68596 26.93260 1240 ft 164 kts 125°
2026-05-08 13:28 37.67670 26.94095 2144 ft 168 kts 166°
2026-05-08 13:28 37.66529 26.94002 2861 ft 171 kts 204°
2026-05-08 13:29 37.65583 26.93045 3528 ft 181 kts 225°
2026-05-08 13:29 37.64643 26.91891 3944 ft 202 kts 220°
2026-05-08 13:29 37.63382 26.90917 4342 ft 226 kts 208°
2026-05-08 13:29 37.62162 26.89526 4865 ft 254 kts 240°
2026-05-08 13:30 37.61814 26.87298 5736 ft 269 kts 273°
2026-05-08 13:30 37.62213 26.84974 6899 ft 273 kts 284°
2026-05-08 13:30 37.62838 26.82703 8045 ft 274 kts 286°
2026-05-08 13:30 37.63475 26.80435 9215 ft 274 kts 285°
2026-05-08 13:31 37.64053 26.78146 10336 ft 275 kts 283°
2026-05-08 13:31 37.64585 26.75734 10865 ft 297 kts 282°
2026-05-08 13:31 37.65097 26.73101 11217 ft 321 kts 281°
2026-05-08 13:31 37.65605 26.70259 11623 ft 340 kts 281°
2026-05-08 13:32 37.66108 26.67313 12390 ft 346 kts 281°
2026-05-08 13:32 37.66605 26.64325 13254 ft 350 kts 281°
2026-05-08 13:32 37.67101 26.61309 14102 ft 353 kts 281°
2026-05-08 13:32 37.67602 26.58264 14848 ft 356 kts 281°
2026-05-08 13:33 37.68295 26.55252 15557 ft 360 kts 291°
2026-05-08 13:33 37.69484 26.52454 16279 ft 365 kts 302°
2026-05-08 13:33 37.71141 26.49999 16995 ft 372 kts 314°
2026-05-08 13:33 37.73110 26.47846 17739 ft 375 kts 316°
2026-05-08 13:34 37.75078 26.45717 18486 ft 378 kts 316°
2026-05-08 13:34 37.77079 26.43545 19148 ft 381 kts 316°
2026-05-08 13:34 37.79091 26.41355 19818 ft 383 kts 316°
2026-05-08 13:34 37.81121 26.39145 20488 ft 386 kts 315°
2026-05-08 13:35 37.83163 26.36917 21138 ft 389 kts 315°
2026-05-08 13:35 37.85219 26.34668 21760 ft 392 kts 315°
2026-05-08 13:35 37.87285 26.32406 22373 ft 394 kts 315°
2026-05-08 13:35 37.89366 26.30128 22965 ft 396 kts 315°
2026-05-08 13:36 37.91456 26.27837 23558 ft 398 kts 315°
2026-05-08 13:36 37.93554 26.25533 24053 ft 401 kts 315°
2026-05-08 13:36 37.95663 26.23213 24538 ft 402 kts 315°
2026-05-08 13:36 37.97784 26.20878 24984 ft 405 kts 315°
2026-05-08 13:37 37.99919 26.18528 25414 ft 409 kts 314°
2026-05-08 13:37 38.02078 26.16151 25845 ft 412 kts 314°
2026-05-08 13:37 38.04250 26.13753 26273 ft 416 kts 314°
2026-05-08 13:37 38.06441 26.11333 26689 ft 419 kts 314°
2026-05-08 13:38 38.08648 26.08893 27112 ft 422 kts 314°
2026-05-08 13:38 38.10871 26.06436 27537 ft 426 kts 314°
2026-05-08 13:38 38.13084 26.03991 27973 ft 429 kts 314°
2026-05-08 13:38 38.15370 26.01463 28404 ft 432 kts 313°
2026-05-08 13:39 38.17612 25.98975 28832 ft 435 kts 313°
2026-05-08 13:39 38.19899 25.96434 29260 ft 438 kts 313°
2026-05-08 13:39 38.22190 25.93891 29923 ft 436 kts 313°
2026-05-08 13:39 38.24468 25.91367 30596 ft 433 kts 313°
2026-05-08 13:40 38.26763 25.88899 31173 ft 432 kts 314°
2026-05-08 13:40 38.29118 25.86527 31734 ft 432 kts 316°
2026-05-08 13:40 38.31514 25.84222 32287 ft 431 kts 316°
2026-05-08 13:40 38.33922 25.81953 32842 ft 430 kts 317°
2026-05-08 13:41 38.36334 25.79684 33391 ft 429 kts 316°
2026-05-08 13:41 38.38723 25.77413 33914 ft 429 kts 316°
2026-05-08 13:41 38.41100 25.75121 34097 ft 427 kts 316°
2026-05-08 13:41 38.43451 25.72826 34115 ft 426 kts 315°
2026-05-08 13:42 38.48136 25.68217 34109 ft 425 kts 315°
2026-05-08 13:42 38.52820 25.63616 34124 ft 425 kts 315°
2026-05-08 13:43 38.57504 25.59021 34110 ft 424 kts 315°
2026-05-08 13:43 38.62178 25.54425 34106 ft 424 kts 315°
2026-05-08 13:44 38.66064 25.50600 34103 ft 424 kts 315°
2026-05-08 13:44 38.70732 25.45999 34114 ft 424 kts 316°
2026-05-08 13:45 38.75405 25.41391 34099 ft 424 kts 315°
2026-05-08 13:45 38.80075 25.36778 34089 ft 424 kts 315°
2026-05-08 13:46 38.84733 25.32154 34100 ft 423 kts 315°
2026-05-08 13:46 38.89392 25.27529 34093 ft 423 kts 315°
2026-05-08 13:47 38.94044 25.22900 34085 ft 423 kts 315°
2026-05-08 13:47 38.98707 25.18264 34092 ft 424 kts 315°
2026-05-08 13:48 39.03347 25.13643 34090 ft 424 kts 315°
2026-05-08 13:48 39.08007 25.08983 34090 ft 424 kts 315°
2026-05-08 13:49 39.12664 25.04313 34089 ft 424 kts 315°
2026-05-08 13:49 39.17325 24.99644 34099 ft 424 kts 315°
2026-05-08 13:50 39.21977 24.94970 34103 ft 424 kts 315°
2026-05-08 13:50 39.26628 24.90288 34084 ft 424 kts 315°
2026-05-08 13:51 39.31282 24.85602 34086 ft 424 kts 315°
2026-05-08 13:51 39.35938 24.80914 34088 ft 424 kts 315°
2026-05-08 13:52 39.40591 24.76214 34084 ft 424 kts 315°
2026-05-08 13:52 39.45202 24.71534 34084 ft 424 kts 315°
2026-05-08 13:53 39.49851 24.66819 34086 ft 426 kts 315°
2026-05-08 13:53 39.54510 24.62076 34078 ft 427 kts 315°
2026-05-08 13:54 39.59184 24.57315 34081 ft 427 kts 315°
2026-05-08 13:54 39.63850 24.52564 34081 ft 427 kts 315°
2026-05-08 13:55 39.68515 24.47805 34075 ft 427 kts 315°
2026-05-08 13:56 39.75504 24.40650 34088 ft 427 kts 315°
2026-05-08 13:56 39.80190 24.35837 34067 ft 432 kts 315°
2026-05-08 13:57 39.84909 24.30979 34077 ft 433 kts 315°
2026-05-08 13:57 39.89633 24.26116 34073 ft 433 kts 315°
2026-05-08 13:58 39.94329 24.21284 34074 ft 433 kts 315°
2026-05-08 13:58 39.99045 24.16405 34074 ft 433 kts 315°